[[{"header":{"parameterUnit":"m.s-1","parameterCategory":2,"la1":30.2991,"la2":30.254,"lo1":-89.0895,"lo2":-89.0444,"dy":0.0017,"dx":0.0017,"nx":28,"ny":28,"refTime":"2024-02-26T03:00:00:Z","depth":"0","parameterNumber":2,"parameterNumberName":"U-component_of_CURRENTS"},"data":[0,0,0,0,0,0,0,0,0,0,0,0,0,0,0,0,0,0,0,0,0,0,0,0,0,0,0,0,0,0,0,0,0,0,0,0,0,0,0,0,0,0,0,0,0,0,0,0,0,0,0,0,0,0,0,0,0,0,0.2174,0.2173,0,0.2061,0.2059,0.2057,0.1959,0.1958,0.1957,0.1956,0.1864,0.1863,0.1861,0,0,0,0,0,0,0,0,0,0,0,0,0,0.2258,0.2257,0.2174,0.2173,0.2172,0.2061,0.2059,0.2057,0.1959,0.1958,0.1957,0.1956,0.1865,0.1863,0.1861,0,0,0,0,0,0,0,0,0,0,0,0,0,0.2188,0.2257,0.2174,0.2112,0.2105,0.2061,0.2059,0.2056,0.1959,0.1958,0.1957,0.1956,0.1866,0.1863,0.1861,0.1869,0,0,0.1853,0.1852,0,0,0,0,0,0,0,0,0.2192,0.2184,0.2122,0.2116,0.2109,0.2026,0.2055,0.1996,0.1959,0.2011,0.1956,0.1955,0.1924,0.1916,0.1892,0.1865,0.1861,0.1853,0.1851,0.185,0.1849,0,0,0,0,0,0,0,0.2197,0.2188,0.2125,0.2121,0.2113,0.2074,0.2063,0.2043,0.1973,0.2006,0.2,0.1993,0.1919,0.1895,0.1889,0.1859,0.1853,0.185,0.1849,0.1848,0.1914,0.1917,0,0,0,0,0,0,0.2222,0.2193,0.2129,0.2122,0.2152,0.2074,0.2061,0.2051,0.1973,0.196,0.1994,0.1989,0.19,0.1892,0.1886,0.1942,0.185,0.1848,0.1846,0.191,0.1914,0.1918,0,0,0,0,0,0,0.2224,0.2217,0.2134,0.2158,0.2145,0.2074,0.2063,0.2049,0.2032,0.1964,0.1951,0.1993,0.1898,0.1889,0.1887,0.1936,0.1846,0.1844,0.1907,0.1912,0.1916,0.2023,0,0,0,0,0,0,0.2227,0.2218,0.2225,0.216,0.2145,0.2133,0.2064,0.2048,0.2031,0.2023,0.1959,0.1948,0.1897,0.1891,0.1884,0.1931,0.1842,0.1902,0.1909,0.1915,0.2015,0.2031,0.2044,0,0,0,0,0,0.223,0.2246,0.2226,0.2218,0.2154,0.2135,0.2124,0.2066,0.2033,0.2042,0.1997,0.195,0.1926,0.1891,0.1882,0.1929,0.1899,0.1907,0.1914,0.2009,0.2028,0.2044,0,0,0,0,0,0,0.2281,0.2236,0.2212,0.2212,0.2189,0.212,0.2119,0.2084,0.2052,0.2042,0.1974,0.1962,0.1991,0.1952,0.1914,0.1974,0.1913,0.1919,0.1988,0.2006,0.202,0.2029,0.184,0,0,0,0,0,0.23,0.2299,0.2255,0.2256,0.2248,0.2189,0.2174,0.2139,0.21,0.2083,0.2039,0.2011,0.2015,0.2001,0.1994,0.2008,0.2006,0.2043,0.2058,0.207,0.2076,0.2123,0.2141,0.1942,0.1942,0.1942,0,0,0.2321,0.2295,0.2295,0.2268,0.2237,0.2229,0.2176,0.2165,0.2161,0.2082,0.2071,0.2064,0.2036,0.2061,0.207,0.2027,0.2133,0.2079,0.2089,0.2089,0.2132,0.2151,0.2168,0.1947,0.1946,0.1945,0,0,0.2351,0.2342,0.2344,0.233,0.2301,0.2274,0.2282,0.2232,0.2217,0.2211,0.2176,0.22,0.2164,0.217,0.2165,0.2261,0.2221,0.2265,0.2323,0.2369,0.2385,0.2399,0.2446,0.2463,0.2256,0.2257,0.2257,0,0.2373,0.2361,0.2347,0.234,0.2326,0.2301,0.2296,0.2292,0.225,0.225,0.2225,0.2235,0.2222,0.2267,0.2306,0.2294,0.2305,0.2251,0.2386,0.24,0.2412,0.2456,0.2474,0.2263,0.2262,0.2261,0.2261,0,0.2395,0.2384,0.2389,0.2369,0.2369,0.2365,0.2356,0.2365,0.2348,0.2334,0.2378,0.2373,0.2372,0.2398,0.2374,0.2469,0.2447,0.2409,0.2334,0.2438,0.2479,0.2495,0.2271,0.2269,0.2267,0.2266,0,0,0.2422,0.2403,0.2401,0.238,0.2376,0.2367,0.24,0.2408,0.2415,0.2431,0.2447,0.2506,0.2508,0.2508,0.2508,0.2556,0.2677,0.2522,0.2522,0.2557,0.2782,0.2727,0.2738,0.2652,0.2655,0.2658,0.2783,0,0.2428,0.2415,0.2411,0.24,0.2386,0.2387,0.2407,0.2425,0.244,0.2462,0.2512,0.2538,0.2549,0.2557,0.2619,0.2656,0.2721,0.2646,0.2686,0.2688,0.2616,0.2756,0.2603,0.2698,0.2798,0.2801,0.2803,0,0.2435,0.2417,0.2408,0.238,0.2376,0.2379,0.2395,0.2412,0.2469,0.2484,0.2544,0.2568,0.2673,0.2651,0.2793,0.274,0.2783,0.2813,0.2817,0.2734,0.2663,0.2608,0.2723,0.2631,0.2827,0.2825,0.2823,0,0.2434,0.2408,0.2396,0.2387,0.2372,0.2371,0.2374,0.2416,0.2432,0.2508,0.2529,0.2637,0.268,0.2774,0.2858,0.2828,0.2994,0.2948,0.2948,0.2944,0.2807,0.2785,0.2822,0.306,0.3059,0.3059,0.3059,0,0.2428,0.2407,0.2386,0.2374,0.2353,0.2353,0.2355,0.2381,0.2426,0.2453,0.2541,0.259,0.2712,0.2809,0.2887,0.298,0.3024,0.2997,0.2986,0.2843,0.2824,0.2727,0.2676,0.3064,0.3063,0.3062,0.3061,0,0.2417,0.2411,0.2379,0.2356,0.2348,0.2333,0.2328,0.2332,0.2388,0.243,0.246,0.2577,0.2703,0.2821,0.2966,0.2998,0.3006,0.3112,0.2941,0.2908,0.2795,0.2755,0.2711,0.2649,0.3139,0.3139,0.3139,0,0.2405,0.2392,0.2363,0.2342,0.2324,0.2303,0.2287,0.2315,0.2325,0.2419,0.244,0.257,0.2648,0.285,0.2934,0.3064,0.2986,0.2989,0.2912,0.2804,0.2752,0.2654,0.2599,0.2789,0.2785,0.2783,0.2781,0,0.2371,0.2371,0.2346,0.2309,0.228,0.2246,0.223,0.2231,0.2271,0.2317,0.239,0.2461,0.2627,0.2684,0.2835,0.2899,0.2814,0.2938,0.2869,0.2533,0.2385,0.2312,0.2698,0.2757,0.276,0.2761,0.2763,0.2764,0.2344,0.232,0.2298,0.2257,0.2221,0.2177,0.2138,0.2137,0.2145,0.2175,0.2293,0.2339,0.2443,0.2626,0.2677,0.2632,0.2663,0.2567,0.2549,0.2478,0.2345,0.2688,0.2698,0.27,0.2701,0.2703,0.2704,0,0.2298,0.2278,0.2241,0.2177,0.2115,0.2124,0.2083,0.2037,0.2016,0.2061,0.2113,0.2157,0.2195,0.2276,0.2304,0.2252,0.2175,0.2202,0.2021,0.2007,0.2349,0.2257,0.2117,0.2117,0.2117,0.2117,0.2117,0.2118,0.2271,0.2228,0.2207,0.2088,0.2041,0.1943,0.1912,0.1864,0.186,0.1827,0.1817,0.1866,0.1967,0.2002,0.1947,0.1919,0.1799,0.1705,0.176,0.1975,0.2006,0.2037,0.194,0.1735,0.1734,0.1318,0.1314,0.1312]},{"header":{"parameterUnit":"m.s-1","parameterCategory":2,"la1":30.2991,"la2":30.254,"lo1":-89.0895,"lo2":-89.0444,"dy":0.0017,"dx":0.0017,"nx":28,"ny":28,"refTime":"2024-02-26T03:00:00:Z","depth":"0","parameterNumber":3,"parameterNumberName":"V-component_of_CURRENTS"},"data":[0,0,0,0,0,0,0,0,0,0,0,0,0,0,0,0,0,0,0,0,0,0,0,0,0,0,0,0,0,0,0,0,0,0,0,0,0,0,0,0,0,0,0,0,0,0,0,0,0,0,0,0,0,0,0,0,0,0,0.0484,0.0483,0,0.0409,0.0408,0.0407,0.0335,0.0334,0.0333,0.0333,0.0298,0.0298,0.0298,0,0,0,0,0,0,0,0,0,0,0,0,0,0.0541,0.054,0.0484,0.0483,0.0483,0.0409,0.0408,0.0407,0.0335,0.0334,0.0333,0.0332,0.0298,0.0298,0.0298,0,0,0,0,0,0,0,0,0,0,0,0,0,0.0494,0.054,0.0484,0.0439,0.0435,0.041,0.0408,0.0407,0.0335,0.0334,0.0333,0.0332,0.0298,0.0298,0.0298,0.0319,0,0,0.0297,0.0297,0,0,0,0,0,0,0,0,0.0497,0.0492,0.0447,0.0442,0.0437,0.0382,0.0416,0.038,0.0335,0.0371,0.0333,0.0331,0.0332,0.0329,0.0314,0.0317,0.0315,0.0297,0.0297,0.0296,0.0296,0,0,0,0,0,0,0,0.0501,0.0495,0.0452,0.0446,0.044,0.0415,0.0407,0.0408,0.0358,0.0368,0.0363,0.0358,0.0329,0.0314,0.0313,0.0315,0.0297,0.0297,0.0296,0.0296,0.0349,0.035,0,0,0,0,0,0,0.0516,0.0498,0.0455,0.045,0.0467,0.0415,0.0406,0.0399,0.0357,0.035,0.0359,0.0355,0.0316,0.0313,0.0312,0.0364,0.0296,0.0296,0.0296,0.0347,0.0349,0.0351,0,0,0,0,0,0,0.0518,0.0513,0.0458,0.0474,0.0466,0.0416,0.0408,0.0398,0.0383,0.035,0.0343,0.0354,0.0315,0.0312,0.0324,0.0361,0.0296,0.0296,0.0345,0.0348,0.035,0.0451,0,0,0,0,0,0,0.052,0.0514,0.0512,0.0475,0.0465,0.0454,0.0409,0.0398,0.0383,0.0377,0.0344,0.0339,0.0313,0.0325,0.0324,0.036,0.0295,0.0343,0.0346,0.0349,0.0446,0.0456,0.0466,0,0,0,0,0,0.0522,0.0521,0.0513,0.0507,0.0465,0.0455,0.0448,0.0407,0.0384,0.0387,0.0368,0.034,0.0343,0.0326,0.0325,0.0361,0.0342,0.0345,0.0349,0.0441,0.0454,0.0465,0,0,0,0,0,0,0.0535,0.0513,0.0503,0.0493,0.0483,0.0444,0.0439,0.0417,0.0402,0.0398,0.0362,0.0357,0.0382,0.0359,0.0342,0.0384,0.0338,0.0341,0.0408,0.0421,0.0431,0.0437,0.0295,0,0,0,0,0,0.0543,0.054,0.052,0.0514,0.0514,0.0482,0.0471,0.0451,0.0433,0.0423,0.0404,0.0391,0.0396,0.0397,0.0393,0.042,0.0388,0.0441,0.0451,0.046,0.0464,0.0438,0.0446,0.0362,0.0362,0.0362,0,0,0.0547,0.0534,0.0531,0.0518,0.0505,0.0519,0.0472,0.0468,0.0482,0.0427,0.0441,0.0428,0.0411,0.0439,0.0448,0.0424,0.0473,0.0465,0.0472,0.0471,0.0442,0.045,0.0457,0.0365,0.0364,0.0364,0,0,0.0558,0.0546,0.0553,0.0557,0.0551,0.0543,0.0549,0.0528,0.0521,0.0538,0.0508,0.0517,0.0514,0.0514,0.0513,0.0578,0.0527,0.0578,0.0635,0.0611,0.0617,0.0622,0.0615,0.0618,0.0583,0.0583,0.0583,0,0.0562,0.057,0.0555,0.057,0.0581,0.0563,0.0588,0.0587,0.0573,0.0584,0.0557,0.0566,0.0552,0.0591,0.0613,0.0602,0.0578,0.0592,0.0623,0.0627,0.0631,0.0622,0.0624,0.0588,0.0587,0.0587,0.0586,0,0.0587,0.0599,0.0607,0.0628,0.0641,0.066,0.0669,0.0686,0.068,0.0677,0.0706,0.0683,0.0688,0.0692,0.0673,0.0705,0.0678,0.0639,0.0592,0.0645,0.0632,0.0633,0.0596,0.0594,0.0592,0.0591,0,0,0.0582,0.0617,0.0622,0.0648,0.0677,0.0692,0.0739,0.0774,0.0804,0.0798,0.0833,0.084,0.0821,0.0818,0.0796,0.0777,0.0792,0.0724,0.072,0.0717,0.0747,0.0716,0.0713,0.0749,0.0749,0.075,0.0736,0,0.0608,0.0653,0.0667,0.0726,0.0757,0.0777,0.0821,0.0855,0.0871,0.0904,0.0895,0.0915,0.0873,0.0878,0.0859,0.0813,0.0795,0.08,0.0695,0.0693,0.0657,0.0713,0.0703,0.0687,0.0736,0.0736,0.0736,0,0.063,0.0661,0.0719,0.0784,0.08,0.0836,0.0911,0.0947,0.0997,0.1008,0.1029,0.1016,0.103,0.0961,0.091,0.0912,0.0841,0.0787,0.0785,0.0717,0.0662,0.0637,0.0686,0.0577,0.0737,0.0737,0.0737,0,0.0637,0.0699,0.0749,0.0771,0.084,0.0877,0.0918,0.0977,0.1022,0.1073,0.1105,0.1106,0.1106,0.1032,0.0946,0.0924,0.0864,0.0817,0.0722,0.072,0.0671,0.0664,0.0599,0.0757,0.0757,0.0757,0.0757,0,0.0657,0.0696,0.0755,0.0783,0.0853,0.0895,0.0972,0.1012,0.1082,0.115,0.1154,0.12,0.1114,0.1078,0.0984,0.0875,0.0895,0.0746,0.0715,0.0709,0.0706,0.0573,0.0522,0.0756,0.0757,0.0757,0.0757,0,0.065,0.0689,0.0745,0.0823,0.0854,0.09,0.1003,0.1061,0.1118,0.1208,0.123,0.1267,0.123,0.1136,0.1022,0.092,0.0761,0.0759,0.0771,0.0741,0.0545,0.0502,0.0429,0.04,0.0666,0.0665,0.0664,0,0.0652,0.068,0.0763,0.0804,0.0838,0.0918,0.0984,0.1068,0.114,0.1257,0.1308,0.1308,0.1337,0.1181,0.0992,0.0832,0.0734,0.0697,0.0646,0.0547,0.0475,0.0461,0.0442,0.0634,0.0633,0.0633,0.0632,0,0.066,0.0681,0.0729,0.0807,0.0877,0.0966,0.1067,0.1135,0.1248,0.1337,0.1451,0.1487,0.1344,0.1195,0.0958,0.0836,0.0641,0.0675,0.0564,0.0445,0.0434,0.0388,0.0642,0.0626,0.0626,0.0627,0.0627,0.0627,0.0663,0.069,0.0752,0.0824,0.0908,0.102,0.1106,0.1226,0.1362,0.1519,0.1545,0.1597,0.1359,0.1047,0.0882,0.0536,0.0565,0.0428,0.0387,0.0385,0.0345,0.0595,0.054,0.054,0.0541,0.0541,0.0541,0,0.0669,0.071,0.0776,0.0873,0.0961,0.1011,0.1173,0.1278,0.145,0.1563,0.1671,0.1542,0.1261,0.0951,0.0496,0.0282,0.0236,0.0176,0.0148,0.0145,0.0352,0.0335,0.0242,0.0242,0.0242,0.0242,0.0243,0.0243,0.068,0.0735,0.0769,0.0907,0.0981,0.1127,0.1227,0.139,0.1504,0.1636,0.1636,0.1636,0.1373,0.0623,0.0136,0.0035,-0.0082,-0.0106,-0.0151,-0.0037,-0.0016,0.0003,-0.0026,-0.0193,-0.0194,-0.0327,-0.0329,-0.033]}],[{"header":{"parameterUnit":"m.s-1","parameterCategory":2,"la1":30.2991,"la2":30.254,"lo1":-89.0895,"lo2":-89.0444,"dy":0.0017,"dx":0.0017,"nx":28,"ny":28,"refTime":"2024-02-26T03:00:00:Z","depth":"2","parameterNumber":2,"parameterNumberName":"U-component_of_CURRENTS"},"data":[0,0,0,0,0,0,0,0,0,0,0,0,0,0,0,0,0,0,0,0,0,0,0,0,0,0,0,0,0,0,0,0,0,0,0,0,0,0,0,0,0,0,0,0,0,0,0,0,0,0,0,0,0,0,0,0,0,0,0.1708,0.1707,0,0.1668,0.1668,0.1668,0.1653,0.1653,0.1653,0.1652,0.1622,0.1622,0.1621,0,0,0,0,0,0,0,0,0,0,0,0,0,0.1657,0.1659,0.1708,0.1707,0.1706,0.1668,0.1668,0.1668,0.1654,0.1653,0.1653,0.1652,0.1622,0.1622,0.1621,0,0,0,0,0,0,0,0,0,0,0,0,0,0.1659,0.166,0.1708,0.169,0.1688,0.1668,0.1668,0.1668,0.1654,0.1653,0.1653,0.1652,0.1622,0.1622,0.1621,0.1626,0,0,0.1619,0.1618,0,0,0,0,0,0,0,0,0.1659,0.1662,0.1694,0.1691,0.1689,0.1661,0.1638,0.1653,0.1654,0.1672,0.1652,0.1652,0.1633,0.1631,0.1632,0.1625,0.1624,0.1619,0.1618,0.1618,0.1618,0,0,0,0,0,0,0,0.1659,0.1663,0.1697,0.1693,0.169,0.1644,0.1646,0.1641,0.166,0.1671,0.1668,0.1656,0.1632,0.1633,0.1631,0.1623,0.1619,0.1618,0.1617,0.1617,0.1696,0.1699,0,0,0,0,0,0,0.1661,0.1664,0.1698,0.1696,0.1667,0.1646,0.1648,0.1674,0.166,0.1655,0.1656,0.1655,0.1634,0.1632,0.163,0.1682,0.1618,0.1617,0.1617,0.1694,0.1697,0.17,0,0,0,0,0,0,0.1661,0.1666,0.17,0.1672,0.1672,0.1648,0.1677,0.1674,0.1695,0.1648,0.1645,0.1682,0.1634,0.1631,0.1639,0.1679,0.1617,0.1616,0.1691,0.1695,0.1698,0.1756,0,0,0,0,0,0,0.166,0.1668,0.1705,0.1674,0.1674,0.1713,0.1677,0.1673,0.1684,0.1683,0.1669,0.1664,0.1633,0.164,0.1638,0.1677,0.1615,0.1687,0.1692,0.1697,0.1751,0.1762,0.1771,0,0,0,0,0,0.1659,0.1649,0.1708,0.1712,0.1722,0.1714,0.1712,0.1693,0.1686,0.1709,0.1689,0.1665,0.167,0.1641,0.1638,0.1677,0.1685,0.1691,0.1697,0.1747,0.176,0.1771,0,0,0,0,0,0,0.1579,0.1647,0.1709,0.1711,0.1747,0.171,0.1702,0.1713,0.1718,0.1715,0.1681,0.1676,0.1711,0.1689,0.1658,0.172,0.1682,0.1687,0.1721,0.1733,0.1742,0.1774,0.1615,0,0,0,0,0,0.1607,0.167,0.1704,0.1719,0.1735,0.1746,0.1745,0.1751,0.1736,0.1739,0.1724,0.1719,0.1732,0.1725,0.1734,0.1749,0.1756,0.1782,0.1792,0.1799,0.1828,0.1861,0.1875,0.1718,0.1718,0.1718,0,0,0.1576,0.1624,0.1655,0.1718,0.1736,0.1758,0.1745,0.175,0.1778,0.1734,0.1754,0.1759,0.175,0.1775,0.1789,0.1756,0.1851,0.1807,0.1813,0.1838,0.1868,0.1883,0.1897,0.1722,0.1722,0.1721,0,0,0.1536,0.1602,0.1657,0.17,0.1759,0.1762,0.1779,0.1789,0.1812,0.1841,0.1827,0.1858,0.1851,0.186,0.1861,0.1935,0.1914,0.1941,0.1994,0.2025,0.2038,0.205,0.208,0.2094,0.1928,0.1929,0.1929,0,0.1545,0.1591,0.1657,0.171,0.1734,0.1772,0.1806,0.183,0.1844,0.187,0.1858,0.1903,0.1899,0.1942,0.1973,0.1958,0.1968,0.194,0.2036,0.2048,0.2058,0.2087,0.2101,0.1932,0.1932,0.1931,0.1931,0,0.1511,0.1598,0.1604,0.1728,0.1759,0.1782,0.1834,0.1872,0.1899,0.1926,0.1998,0.2004,0.2026,0.2043,0.2027,0.2109,0.209,0.2054,0.2,0.2077,0.2103,0.2117,0.1937,0.1936,0.1935,0.1934,0,0,0.1484,0.1589,0.1614,0.1685,0.178,0.1789,0.1852,0.1919,0.1955,0.2009,0.2059,0.2121,0.2139,0.2148,0.2147,0.2184,0.2271,0.2156,0.2156,0.2176,0.2344,0.2125,0.2119,0.2239,0.2242,0.2244,0.2331,0,0.1492,0.1575,0.1625,0.1709,0.1758,0.1828,0.1877,0.1945,0.1997,0.2046,0.2111,0.2158,0.2172,0.219,0.2238,0.2259,0.231,0.2251,0.2277,0.2278,0.2064,0.2128,0.1987,0.2033,0.2344,0.2346,0.2348,0,0.1484,0.1548,0.1632,0.1742,0.1766,0.1815,0.1904,0.195,0.2043,0.2089,0.2164,0.22,0.2289,0.2276,0.2383,0.234,0.237,0.2389,0.239,0.2179,0.2085,0.2008,0.2046,0.237,0.2368,0.2367,0.2365,0,0.1441,0.1563,0.1628,0.1668,0.178,0.1837,0.188,0.1977,0.2025,0.2124,0.2169,0.2261,0.2317,0.2375,0.2428,0.241,0.2525,0.2485,0.2333,0.2318,0.22,0.2167,0.2585,0.2585,0.2585,0.2585,0.2585,0,0.1438,0.1498,0.1621,0.1664,0.1735,0.1816,0.1893,0.1955,0.2043,0.21,0.2191,0.2254,0.235,0.2415,0.245,0.2421,0.2542,0.2366,0.2327,0.2213,0.2181,0.2472,0.2457,0.2588,0.2587,0.2587,0.2586,0,0.139,0.148,0.1565,0.169,0.1739,0.1784,0.1898,0.193,0.2032,0.2111,0.2149,0.2272,0.2341,0.2409,0.2498,0.2424,0.2428,0.24,0.225,0.2187,0.2204,0.2193,0.2226,0.2219,0.2214,0.2209,0.2205,0,0.1367,0.1411,0.1569,0.1626,0.1698,0.1778,0.1833,0.193,0.1967,0.2115,0.2141,0.225,0.2268,0.2287,0.2226,0.2202,0.2338,0.2026,0.1943,0.221,0.217,0.2167,0.2164,0.1845,0.1838,0.1833,0.1829,0,0.1309,0.1384,0.1449,0.1575,0.1665,0.1729,0.1815,0.1839,0.1944,0.2014,0.2099,0.212,0.2116,0.1989,0.1909,0.1878,0.1993,0.1899,0.2266,0.1902,0.1841,0.1803,0.1816,0.1779,0.1784,0.1788,0.1791,0.1793,0.1267,0.1296,0.141,0.1511,0.1608,0.1675,0.1705,0.1767,0.1819,0.1863,0.1933,0.1892,0.1835,0.1594,0.1545,0.152,0.1625,0.1568,0.1591,0.1619,0.1503,0.1428,0.1271,0.1273,0.1275,0.1276,0.1278,0,0.121,0.1264,0.1332,0.1459,0.1519,0.1629,0.1687,0.1679,0.1713,0.1693,0.1697,0.1454,0.1306,0.1325,0.1184,0.1088,0.1152,0.107,0.1193,0.1239,0.128,0.1154,0.0827,0.0826,0.0825,0.0824,0,0,0.1191,0.1206,0.1238,0.1343,0.1461,0.1543,0.1583,0.1561,0.1529,0.1408,0.1328,0.1241,0.1251,0.1025,0.0962,0.091,0.1087,0.0869,0.1227,0.142,0.1462,0.1548,0.1399,0,0,0,0,0]},{"header":{"parameterUnit":"m.s-1","parameterCategory":2,"la1":30.2991,"la2":30.254,"lo1":-89.0895,"lo2":-89.0444,"dy":0.0017,"dx":0.0017,"nx":28,"ny":28,"refTime":"2024-02-26T03:00:00:Z","depth":"2","parameterNumber":3,"parameterNumberName":"V-component_of_CURRENTS"},"data":[0,0,0,0,0,0,0,0,0,0,0,0,0,0,0,0,0,0,0,0,0,0,0,0,0,0,0,0,0,0,0,0,0,0,0,0,0,0,0,0,0,0,0,0,0,0,0,0,0,0,0,0,0,0,0,0,0,0,-0.0153,-0.0153,0,-0.0122,-0.012,-0.0119,-0.006,-0.006,-0.006,-0.006,-0.0061,-0.0061,-0.0061,0,0,0,0,0,0,0,0,0,0,0,0,0,-0.0173,-0.0172,-0.0153,-0.0153,-0.0154,-0.0122,-0.012,-0.0119,-0.006,-0.006,-0.006,-0.006,-0.0061,-0.0061,-0.0061,0,0,0,0,0,0,0,0,0,0,0,0,0,-0.0144,-0.0172,-0.0152,-0.013,-0.0128,-0.0122,-0.012,-0.0118,-0.006,-0.006,-0.006,-0.006,-0.0061,-0.0061,-0.0061,-0.0064,0,0,-0.0062,-0.0062,0,0,0,0,0,0,0,0,-0.0146,-0.0142,-0.0132,-0.0131,-0.013,-0.0105,-0.0129,-0.0106,-0.006,-0.0073,-0.006,-0.006,-0.0087,-0.0085,-0.0062,-0.0064,-0.0064,-0.0062,-0.0062,-0.0062,-0.0062,0,0,0,0,0,0,0,-0.0148,-0.0143,-0.0128,-0.0133,-0.0132,-0.0127,-0.0121,-0.0123,-0.0072,-0.0072,-0.0071,-0.0086,-0.0085,-0.0061,-0.0062,-0.0064,-0.0062,-0.0062,-0.0062,-0.0062,-0.0051,-0.0051,0,0,0,0,0,0,-0.0175,-0.0145,-0.0129,-0.0128,-0.0151,-0.0127,-0.012,-0.0103,-0.0071,-0.007,-0.0087,-0.0084,-0.0061,-0.0061,-0.0062,-0.0043,-0.0062,-0.0062,-0.0062,-0.0052,-0.0051,-0.0051,0,0,0,0,0,0,-0.0175,-0.0172,-0.0131,-0.0148,-0.0144,-0.0128,-0.0109,-0.0103,-0.0067,-0.0084,-0.008,-0.0057,-0.0061,-0.0061,-0.0062,-0.0044,-0.0062,-0.0062,-0.0052,-0.0052,-0.0051,-0.0019,0,0,0,0,0,0,-0.0175,-0.0171,-0.0153,-0.0148,-0.0144,-0.0115,-0.011,-0.0103,-0.0084,-0.0079,-0.0059,-0.0059,-0.0061,-0.0062,-0.0062,-0.0044,-0.0062,-0.0053,-0.0052,-0.0051,-0.0021,-0.0018,-0.0015,0,0,0,0,0,-0.0175,-0.0179,-0.0151,-0.015,-0.0123,-0.0115,-0.0109,-0.0092,-0.0083,-0.0058,-0.0058,-0.0059,-0.0057,-0.0062,-0.0062,-0.0044,-0.0053,-0.0052,-0.0051,-0.0022,-0.0018,-0.0015,0,0,0,0,0,0,-0.0208,-0.0174,-0.0144,-0.0141,-0.0117,-0.0109,-0.011,-0.0084,-0.0059,-0.0058,-0.0059,-0.0059,-0.0046,-0.0056,-0.0061,-0.004,-0.0053,-0.0053,-0.0031,-0.0027,-0.0025,0.0015,-0.0062,0,0,0,0,0,-0.02,-0.0168,-0.0148,-0.0142,-0.0137,-0.011,-0.0103,-0.008,-0.0074,-0.0059,-0.005,-0.0048,-0.0044,-0.0045,-0.004,-0.0037,-0.0046,-0.0025,-0.0022,-0.002,0.0012,-0.0008,-0.0003,-0.0048,-0.0048,-0.0048,0,0,-0.022,-0.0194,-0.0181,-0.0143,-0.013,-0.0109,-0.0102,-0.009,-0.0055,-0.0069,-0.003,-0.0033,-0.0039,-0.0027,-0.0023,-0.0035,-0.0016,-0.0019,-0.0016,0.0015,-0.0006,-0.0002,0.0002,-0.0048,-0.0048,-0.0048,0,0,-0.0237,-0.0213,-0.0181,-0.0165,-0.0136,-0.0113,-0.0106,-0.0077,-0.0042,-0.0009,-0.0014,-0.0005,0.0003,0.0006,0.0005,0.0025,0.0006,0.002,0.0061,0.004,0.0044,0.0048,0.0026,0.0027,0.0014,0.0014,0.0014,0,-0.0237,-0.0198,-0.0178,-0.0154,-0.0141,-0.0113,-0.0082,-0.0053,-0.0019,0.002,0.0007,0.0044,0.0028,0.0051,0.0055,0.0035,0.0016,0.0047,0.0045,0.0048,0.0051,0.0028,0.0029,0.0016,0.0015,0.0015,0.0015,0,-0.0251,-0.0195,-0.0197,-0.0128,-0.0115,-0.0092,-0.0061,-0.002,0.002,0.0065,0.0116,0.0097,0.0127,0.0109,0.0088,0.0105,0.0081,0.0055,0.0038,0.0058,0.0032,0.0032,0.0018,0.0017,0.0017,0.0016,0,0,-0.0258,-0.0195,-0.0184,-0.0127,-0.0089,-0.0072,-0.0027,0.0053,0.0117,0.0143,0.0216,0.0211,0.0223,0.0223,0.019,0.0164,0.0148,0.0119,0.0117,0.0102,0.0099,0.0006,-0.0003,0.0111,0.0112,0.0112,0.0067,0,-0.0232,-0.017,-0.0147,-0.0072,-0.0031,0.0004,0.0053,0.0115,0.0178,0.0247,0.0251,0.0301,0.0257,0.0269,0.024,0.017,0.0154,0.0163,0.0081,0.0079,-0.0003,-0.0004,0.0052,0.0009,0.0067,0.0067,0.0067,0,-0.0229,-0.0171,-0.0099,0.0013,0.0032,0.0079,0.0182,0.0234,0.0319,0.0362,0.0407,0.0417,0.04,0.0354,0.0271,0.0273,0.021,0.015,0.0145,0.0058,-0.0013,0.0002,0.0008,0.0068,0.0067,0.0067,0.0067,0,-0.0231,-0.0124,-0.0049,-0.0029,0.0073,0.0137,0.02,0.0289,0.0361,0.0443,0.0497,0.049,0.0494,0.0406,0.0276,0.028,0.0162,0.0149,0.0019,0.0011,0.0046,0.0039,0.0121,0.0121,0.0121,0.0121,0.0121,0,-0.0201,-0.0133,-0.003,0.0006,0.0122,0.017,0.0301,0.0362,0.0459,0.0559,0.0564,0.0611,0.0508,0.043,0.0304,0.014,0.0182,0.004,-0.0004,0.0053,0.0048,0.0095,0.0092,0.0119,0.0119,0.012,0.012,0,-0.0205,-0.0142,-0.0047,0.0077,0.0131,0.0206,0.036,0.045,0.0531,0.065,0.0677,0.0699,0.0599,0.0456,0.0302,0.0181,0.0022,-0.0038,0.0026,-0.001,-0.0108,-0.0108,-0.0154,-0.0157,-0.016,-0.0163,-0.0165,0,-0.0194,-0.0148,-0.0017,0.0051,0.0128,0.0254,0.0351,0.0472,0.0566,0.0702,0.0751,0.0723,0.0677,0.0389,0.0209,-0.0024,-0.0047,-0.0141,-0.0117,-0.0096,-0.0134,-0.013,-0.0126,-0.0054,-0.0055,-0.0056,-0.0057,0,-0.0166,-0.0132,-0.0063,0.0062,0.0184,0.032,0.047,0.0552,0.07,0.0788,0.0869,0.0838,0.0635,0.0412,0.0095,-0.0041,-0.011,-0.0169,-0.0151,-0.0017,-0.0013,-0.0048,-0.0044,-0.0065,-0.0064,-0.0063,-0.0063,-0.0063,-0.0155,-0.011,-0.0028,0.0089,0.0224,0.0392,0.052,0.0665,0.0813,0.0958,0.0895,0.084,0.0606,0.0203,0.0001,-0.0154,-0.015,-0.0232,-0.0224,-0.0216,-0.022,-0.0224,-0.0315,-0.0316,-0.0316,-0.0317,-0.0317,0,-0.0115,-0.0075,0.0009,0.0162,0.0297,0.0397,0.0607,0.0736,0.0925,0.096,0.0981,0.0702,0.0437,0.0205,-0.0009,-0.0203,-0.0142,-0.0273,-0.0147,-0.0141,-0.0134,-0.0129,-0.0202,-0.0202,-0.0202,-0.0202,0,0,-0.0089,-0.002,0.0013,0.0208,0.0337,0.0577,0.0723,0.0899,0.0972,0.1008,0.0946,0.0749,0.0449,0.0274,0.0054,-0.0048,-0.0039,-0.0064,-0.0139,0.0046,0.0055,-0.0101,-0.0086,0,0,0,0,0]}],[{"header":{"parameterUnit":"m.s-1","parameterCategory":2,"la1":30.2991,"la2":30.254,"lo1":-89.0895,"lo2":-89.0444,"dy":0.0017,"dx":0.0017,"nx":28,"ny":28,"refTime":"2024-02-26T03:00:00:Z","depth":"4","parameterNumber":2,"parameterNumberName":"U-component_of_CURRENTS"},"data":[0,0,0,0,0,0,0,0,0,0,0,0,0,0,0,0,0,0,0,0,0,0,0,0,0,0,0,0,0,0,0,0,0,0,0,0,0,0,0,0,0,0,0,0,0,0,0,0,0,0,0,0,0,0,0,0,0,0,0.0024,0.0025,0,0.0093,0.0094,0.0095,0.013,0.013,0.013,0.013,0.0198,0.02,0.0201,0,0,0,0,0,0,0,0,0,0,0,0,0,0.0006,0.0005,0.0024,0.0025,0.0026,0.0093,0.0094,0.0095,0.013,0.013,0.013,0.013,0.0197,0.0199,0.0201,0,0,0,0,0,0,0,0,0,0,0,0,0,0.0037,0.0005,0.0024,0.0052,0.0055,0.0093,0.0094,0.0095,0.013,0.013,0.013,0.013,0.0197,0.0199,0.0202,0.0215,0,0,0.021,0.0211,0,0,0,0,0,0,0,0,0.0035,0.0038,0.0047,0.005,0.0054,0.0104,0.0112,0.0135,0.013,0.0101,0.013,0.013,0.0167,0.0172,0.0183,0.0218,0.0221,0.021,0.0211,0.0212,0.0213,0,0,0,0,0,0,0,0.0033,0.0035,0.005,0.0048,0.0052,0.009,0.0094,0.0117,0.0131,0.0103,0.0106,0.0115,0.0168,0.0181,0.0185,0.0222,0.021,0.0212,0.0214,0.0215,0.0225,0.0224,0,0,0,0,0,0,0.0021,0.0033,0.0048,0.0053,0.0045,0.009,0.0094,0.0087,0.0131,0.0139,0.0115,0.0116,0.0176,0.0182,0.0188,0.0192,0.0212,0.0215,0.0216,0.0227,0.0225,0.0224,0,0,0,0,0,0,0.002,0.0021,0.0046,0.0046,0.0052,0.0089,0.0082,0.0088,0.0101,0.014,0.0147,0.0121,0.0177,0.0184,0.0203,0.0195,0.0216,0.0218,0.0228,0.0226,0.0224,0.0209,0,0,0,0,0,0,0.0019,0.002,0.002,0.0044,0.0051,0.0072,0.0082,0.0089,0.0107,0.0109,0.0148,0.0154,0.0177,0.0199,0.0205,0.0199,0.022,0.023,0.0227,0.0225,0.0211,0.0207,0.0203,0,0,0,0,0,0.0018,0.002,0.0019,0.0022,0.0046,0.0073,0.008,0.0108,0.0107,0.0118,0.0133,0.0153,0.0188,0.0201,0.0208,0.0203,0.0231,0.0228,0.0225,0.0213,0.0208,0.0203,0,0,0,0,0,0,0.0023,0.0024,0.0024,0.0028,0.0049,0.0079,0.0097,0.0104,0.0125,0.0128,0.0151,0.0159,0.0166,0.0182,0.0195,0.0193,0.0207,0.0206,0.0195,0.019,0.0186,0.02,0.0222,0,0,0,0,0,0.0019,0.0016,0.0029,0.0036,0.0042,0.0064,0.008,0.0095,0.0115,0.0124,0.0138,0.015,0.016,0.0174,0.0185,0.0198,0.0218,0.0191,0.0188,0.0184,0.0197,0.0207,0.0206,0.0214,0.0215,0.0215,0,0,0.0025,0.0027,0.0027,0.0037,0.0053,0.0069,0.0074,0.0098,0.011,0.0128,0.0138,0.0139,0.0157,0.0165,0.0169,0.0181,0.019,0.0181,0.0178,0.0193,0.0204,0.0204,0.0203,0.0213,0.0213,0.0213,0,0,0.0039,0.0033,0.0034,0.0046,0.0067,0.0081,0.0083,0.0099,0.0105,0.0116,0.0119,0.0115,0.0137,0.0144,0.0152,0.0132,0.0164,0.0125,0.013,0.0139,0.0139,0.0139,0.0164,0.0167,0.013,0.013,0.013,0,0.0048,0.0044,0.0044,0.0052,0.0064,0.008,0.0091,0.0104,0.0122,0.0122,0.0118,0.0121,0.0128,0.014,0.0127,0.0126,0.0144,0.0152,0.0137,0.0137,0.0138,0.0163,0.0167,0.0129,0.0129,0.0129,0.0129,0,0.0057,0.006,0.0066,0.0071,0.0085,0.0101,0.0112,0.0118,0.0116,0.0123,0.0119,0.0119,0.0125,0.0111,0.012,0.012,0.0134,0.0128,0.0156,0.0137,0.0164,0.0168,0.0127,0.0127,0.0128,0.0128,0,0,0.0057,0.0067,0.0068,0.0073,0.0093,0.0106,0.0119,0.0132,0.0141,0.0137,0.0141,0.0131,0.0124,0.0131,0.0125,0.0128,0.0138,0.0133,0.0134,0.0172,0.0175,0.0168,0.0172,0.0133,0.0134,0.0134,0.0193,0,0.0063,0.0072,0.0076,0.0097,0.0103,0.0117,0.0128,0.0143,0.015,0.0159,0.0151,0.0157,0.0135,0.0137,0.0133,0.0138,0.0148,0.0124,0.0176,0.0178,0.0186,0.0175,0.0135,0.0196,0.0197,0.0198,0.0198,0,0.0063,0.0069,0.0077,0.0099,0.0102,0.0114,0.0132,0.0148,0.0168,0.0174,0.0179,0.0182,0.0187,0.0166,0.0179,0.0168,0.0173,0.0175,0.0177,0.0183,0.0178,0.0217,0.0205,0.0205,0.0204,0.0204,0.0203,0,0.0051,0.0072,0.0073,0.008,0.0104,0.0106,0.0121,0.0143,0.0165,0.0189,0.0213,0.0212,0.0229,0.0223,0.0227,0.0208,0.025,0.0223,0.0226,0.0227,0.0225,0.0224,0.0238,0.0238,0.0238,0.0238,0.0237,0,0.005,0.0059,0.0066,0.0067,0.0078,0.0095,0.0114,0.0133,0.0171,0.0211,0.0219,0.0248,0.0244,0.0268,0.0252,0.0261,0.0273,0.0236,0.024,0.0215,0.0212,0.0229,0.0227,0.024,0.0239,0.0239,0.0239,0,0.0043,0.0047,0.0051,0.0062,0.007,0.0074,0.012,0.0142,0.0181,0.0237,0.0254,0.0292,0.0306,0.0311,0.0318,0.0307,0.0306,0.0309,0.0308,0.031,0.0271,0.0267,0.0309,0.0309,0.0309,0.0309,0.031,0,0.0042,0.0039,0.004,0.0046,0.005,0.0069,0.0089,0.0135,0.0172,0.0261,0.0289,0.033,0.0346,0.0358,0.0344,0.0335,0.0321,0.0348,0.0277,0.0278,0.0278,0.0273,0.027,0.031,0.031,0.031,0.031,0,0.0041,0.003,0.0031,0.0036,0.0048,0.0074,0.011,0.0138,0.0208,0.026,0.0325,0.0346,0.0366,0.0347,0.0362,0.0343,0.0339,0.0349,0.0347,0.0281,0.0279,0.0278,0.0274,0.0311,0.031,0.031,0.031,0,0.0035,0.0033,0.0026,0.0034,0.0053,0.0073,0.0088,0.0142,0.0185,0.0292,0.0309,0.0339,0.0372,0.0354,0.0356,0.0349,0.0319,0.0318,0.0317,0.0316,0.0286,0.0283,0.0328,0,0,0,0,0,0.0034,0.0035,0.0037,0.0042,0.0061,0.0072,0.0111,0.0131,0.0202,0.0249,0.0286,0.0303,0.0319,0.0319,0.0303,0.0319,0.0299,0.0301,0.0292,0.0314,0.0313,0.0273,0,0,0,0,0,0,0.0033,0.0036,0.0033,0.005,0.006,0.0084,0.0099,0.0138,0.0163,0.0236,0.0225,0.0304,0.0286,0.0322,0.0302,0.0305,0.0299,0.0323,0.0323,0.0314,0.0314,0.0313,0.0272,0,0,0,0,0]},{"header":{"parameterUnit":"m.s-1","parameterCategory":2,"la1":30.2991,"la2":30.254,"lo1":-89.0895,"lo2":-89.0444,"dy":0.0017,"dx":0.0017,"nx":28,"ny":28,"refTime":"2024-02-26T03:00:00:Z","depth":"4","parameterNumber":3,"parameterNumberName":"V-component_of_CURRENTS"},"data":[0,0,0,0,0,0,0,0,0,0,0,0,0,0,0,0,0,0,0,0,0,0,0,0,0,0,0,0,0,0,0,0,0,0,0,0,0,0,0,0,0,0,0,0,0,0,0,0,0,0,0,0,0,0,0,0,0,0,0.0144,0.0143,0,0.0087,0.0086,0.0085,0.0043,0.0042,0.0042,0.0042,-0.0037,-0.0039,-0.0041,0,0,0,0,0,0,0,0,0,0,0,0,0,0.0171,0.0171,0.0144,0.0143,0.0143,0.0087,0.0086,0.0085,0.0043,0.0042,0.0042,0.0042,-0.0036,-0.0039,-0.0041,0,0,0,0,0,0,0,0,0,0,0,0,0,0.0139,0.0171,0.0144,0.0117,0.0114,0.0087,0.0086,0.0085,0.0043,0.0042,0.0042,0.0042,-0.0036,-0.0038,-0.0041,-0.0055,0,0,-0.005,-0.0052,0,0,0,0,0,0,0,0,0.0141,0.0138,0.0121,0.0119,0.0115,0.0074,0.0067,0.0038,0.0043,0.0067,0.0042,0.0042,-0.0,-0.0006,-0.0019,-0.0058,-0.0062,-0.0051,-0.0052,-0.0054,-0.0054,0,0,0,0,0,0,0,0.0144,0.014,0.0119,0.0121,0.0117,0.0092,0.0088,0.0061,0.0033,0.0065,0.0062,0.006,-0.0002,-0.0017,-0.0022,-0.0063,-0.0051,-0.0053,-0.0055,-0.0056,-0.0164,-0.0165,0,0,0,0,0,0,0.0158,0.0142,0.0121,0.0117,0.0131,0.0092,0.0087,0.0085,0.0034,0.0027,0.006,0.0058,-0.0011,-0.0018,-0.0025,-0.0079,-0.0054,-0.0056,-0.0058,-0.0163,-0.0164,-0.0165,0,0,0,0,0,0,0.0159,0.0157,0.0123,0.013,0.0125,0.0093,0.0091,0.0084,0.0055,0.0031,0.0023,0.0037,-0.0012,-0.002,-0.0066,-0.0081,-0.0058,-0.006,-0.0162,-0.0163,-0.0165,-0.0164,0,0,0,0,0,0,0.016,0.0157,0.0162,0.0131,0.0125,0.0114,0.0091,0.0084,0.0057,0.0053,0.0008,0.0002,-0.0013,-0.0062,-0.0069,-0.0084,-0.0063,-0.016,-0.0162,-0.0164,-0.0163,-0.0166,-0.0168,0,0,0,0,0,0.0161,0.0172,0.0163,0.0161,0.0133,0.0115,0.0109,0.0084,0.0056,0.0053,0.0006,0.0002,-0.008,-0.0066,-0.0074,-0.009,-0.0159,-0.0162,-0.0164,-0.0162,-0.0165,-0.0168,0,0,0,0,0,0,0.0187,0.0168,0.0158,0.0163,0.0144,0.0109,0.0111,0.0075,0.0034,0.0021,-0.0014,-0.0024,-0.0069,-0.0083,-0.0066,-0.0128,-0.012,-0.0124,-0.0115,-0.0118,-0.0121,-0.0103,-0.0065,0,0,0,0,0,0.0197,0.0201,0.0175,0.018,0.0175,0.0136,0.0123,0.0094,0.0056,0.0037,-0.0008,-0.0051,-0.0084,-0.0104,-0.0135,-0.0169,-0.0168,-0.0185,-0.0188,-0.019,-0.0182,-0.0194,-0.0196,-0.0174,-0.0174,-0.0174,0,0,0.0208,0.02,0.0201,0.0186,0.0172,0.0156,0.0127,0.0106,0.0071,0.0035,-0.003,-0.0065,-0.0097,-0.0137,-0.0158,-0.0151,-0.0198,-0.0193,-0.0194,-0.0185,-0.0196,-0.0198,-0.02,-0.0175,-0.0175,-0.0175,0,0,0.0229,0.0228,0.0233,0.0221,0.0198,0.0169,0.0159,0.0104,0.0067,0.0004,-0.0032,-0.0075,-0.0139,-0.0159,-0.0177,-0.0213,-0.0213,-0.023,-0.0226,-0.0238,-0.0239,-0.024,-0.0243,-0.0244,-0.0228,-0.0228,-0.0228,0,0.024,0.0238,0.0232,0.0231,0.0213,0.0173,0.0153,0.0119,0.0042,0.0006,-0.0014,-0.0116,-0.0145,-0.0182,-0.0198,-0.0216,-0.0222,-0.0209,-0.0239,-0.024,-0.0241,-0.0244,-0.0245,-0.0229,-0.0229,-0.0229,-0.0229,0,0.0252,0.0253,0.0259,0.0239,0.0221,0.0202,0.0154,0.011,0.0047,0.0,-0.007,-0.0114,-0.0167,-0.0189,-0.0206,-0.0234,-0.0235,-0.024,-0.0224,-0.0242,-0.0245,-0.0246,-0.0229,-0.0229,-0.0229,-0.0229,0,0,0.0257,0.0264,0.0262,0.025,0.0214,0.0192,0.0148,0.0088,0.0047,-0.0023,-0.0077,-0.0138,-0.0164,-0.0184,-0.0212,-0.0227,-0.0245,-0.0239,-0.0239,-0.0229,-0.0267,-0.0241,-0.024,-0.0257,-0.0257,-0.0258,-0.0266,0,0.0257,0.0256,0.0249,0.0224,0.0211,0.017,0.0132,0.0074,0.0015,-0.0042,-0.0087,-0.0138,-0.0159,-0.0186,-0.0204,-0.0239,-0.0249,-0.0241,-0.0261,-0.0262,-0.0226,-0.0241,-0.0258,-0.0267,-0.0267,-0.0267,-0.0268,0,0.025,0.0249,0.0233,0.0203,0.0192,0.0169,0.0094,0.0055,-0.0008,-0.005,-0.0093,-0.013,-0.0164,-0.0178,-0.0222,-0.0219,-0.024,-0.0261,-0.0262,-0.0235,-0.0238,-0.0246,-0.027,-0.027,-0.027,-0.0269,-0.0269,0,0.0232,0.0225,0.0207,0.0199,0.0168,0.014,0.0107,0.0045,0.0014,-0.0046,-0.0069,-0.0118,-0.0142,-0.0176,-0.0217,-0.0224,-0.0259,-0.0271,-0.0262,-0.026,-0.028,-0.0279,-0.0291,-0.0291,-0.0291,-0.0291,-0.0291,0,0.0213,0.0203,0.0202,0.0193,0.0157,0.0133,0.009,0.005,0.0013,-0.0012,-0.0063,-0.0088,-0.0144,-0.0174,-0.021,-0.0234,-0.0248,-0.0257,-0.026,-0.0281,-0.028,-0.0281,-0.0279,-0.0291,-0.0291,-0.0291,-0.0291,0,0.0195,0.0199,0.0187,0.0164,0.0154,0.0126,0.0097,0.0071,0.0039,0.0011,-0.0001,-0.0062,-0.0101,-0.0145,-0.02,-0.0216,-0.0248,-0.0251,-0.0261,-0.0265,-0.0244,-0.0243,-0.0244,-0.0243,-0.0242,-0.0242,-0.0241,0,0.0184,0.0181,0.0173,0.0162,0.0155,0.0125,0.0105,0.0078,0.0063,0.0026,0.0014,-0.0028,-0.0068,-0.0126,-0.0171,-0.0217,-0.0225,-0.0235,-0.0249,-0.0236,-0.024,-0.024,-0.0239,-0.024,-0.024,-0.024,-0.024,0,0.0163,0.0172,0.0164,0.0155,0.0139,0.012,0.01,0.0095,0.007,0.0061,0.0021,-0.0019,-0.006,-0.0118,-0.0145,-0.0184,-0.0228,-0.0228,-0.023,-0.0243,-0.0232,-0.0236,-0.0236,-0.0237,-0.0237,-0.0238,-0.0238,0,0.0149,0.0144,0.0147,0.0136,0.013,0.0113,0.0097,0.0081,0.0069,0.0046,0.0036,-0.002,-0.0048,-0.01,-0.013,-0.0156,-0.0169,-0.0183,-0.0188,-0.0191,-0.0173,-0.015,-0.0129,0,0,0,0,0,0.0126,0.0128,0.0123,0.0113,0.0118,0.0118,0.0096,0.0084,0.0082,0.0059,0.005,0.0011,-0.0044,-0.0082,-0.0104,-0.0117,-0.0171,-0.0142,-0.0189,-0.0223,-0.0226,-0.0211,0,0,0,0,0,0,0.0105,0.0109,0.012,0.0114,0.0116,0.0111,0.0102,0.0089,0.0072,0.0065,0.0027,0.0026,-0.0038,-0.0019,-0.0094,-0.0102,-0.0133,-0.0164,-0.0164,-0.0221,-0.0224,-0.0226,-0.0212,0,0,0,0,0]}]]